TimeCDT,TemperatureF,Dew PointF,Humidity,Sea Level PressureIn,VisibilityMPH,Wind Direction,Wind SpeedMPH,Gust SpeedMPH,PrecipitationIn,Events,Conditions,WindDirDegrees,DateUTC
12:55 AM,60.6,37.0,42,29.98,10.0,South,8.1,-,N/A,,Clear,190,2013-04-07 05:55:00
1:55 AM,61.3,37.6,41,29.97,10.0,South,8.1,-,N/A,,Mostly Cloudy,190,2013-04-07 06:55:00
2:55 AM,60.6,38.3,44,29.96,10.0,South,8.1,-,N/A,,Clear,190,2013-04-07 07:55:00
3:55 AM,60.1,38.8,45,29.96,10.0,South,9.2,-,N/A,,Partly Cloudy,190,2013-04-07 08:55:00
4:55 AM,60.6,40.6,48,29.96,10.0,SSW,11.5,-,N/A,,Mostly Cloudy,200,2013-04-07 09:55:00
5:55 AM,61.3,43.3,52,29.97,10.0,SSW,13.8,-,N/A,,Overcast,210,2013-04-07 10:55:00
6:55 AM,61.7,45.7,56,30.00,10.0,SSW,13.8,-,N/A,,Overcast,210,2013-04-07 11:55:00
7:55 AM,61.7,47.8,60,30.01,10.0,SSW,13.8,-,N/A,,Overcast,210,2013-04-07 12:55:00
8:55 AM,63.0,49.5,61,30.02,10.0,SSW,17.3,23.0,N/A,,Scattered Clouds,210,2013-04-07 13:55:00
9:55 AM,65.3,51.3,60,30.02,10.0,SSW,17.3,23.0,N/A,,Scattered Clouds,210,2013-04-07 14:55:00
10:55 AM,67.3,51.6,57,30.03,10.0,SSW,17.3,23.0,N/A,,Partly Cloudy,200,2013-04-07 15:55:00
11:55 AM,70.2,50.9,50,30.02,10.0,SW,18.4,-,N/A,,Mostly Cloudy,220,2013-04-07 16:55:00
12:55 PM,72.7,49.3,44,30.00,10.0,SSW,16.1,23.0,N/A,,Mostly Cloudy,200,2013-04-07 17:55:00
1:55 PM,73.8,48.9,41,29.98,10.0,South,9.2,21.9,N/A,,Partly Cloudy,190,2013-04-07 18:55:00
2:55 PM,74.5,47.5,38,29.98,10.0,SW,12.7,-,N/A,,Mostly Cloudy,220,2013-04-07 19:55:00
3:55 PM,75.0,45.0,34,29.96,10.0,SW,12.7,-,N/A,,Clear,230,2013-04-07 20:55:00
4:55 PM,72.9,43.9,35,29.96,10.0,SW,12.7,-,N/A,,Mostly Cloudy,220,2013-04-07 21:55:00
5:55 PM,71.8,44.8,38,29.96,10.0,SW,10.4,-,N/A,,Overcast,220,2013-04-07 22:55:00
6:55 PM,68.0,47.8,48,29.95,10.0,SW,8.1,-,N/A,,Partly Cloudy,220,2013-04-07 23:55:00
7:55 PM,67.3,46.2,47,29.96,10.0,SSW,4.6,-,N/A,,Clear,200,2013-04-08 00:55:00
8:55 PM,66.0,46.9,50,29.97,10.0,South,6.9,-,N/A,,Clear,190,2013-04-08 01:55:00
9:55 PM,65.1,46.4,51,29.97,10.0,South,5.8,-,N/A,,Clear,170,2013-04-08 02:55:00
10:55 PM,63.7,46.6,54,29.97,10.0,SSE,4.6,-,N/A,,Clear,160,2013-04-08 03:55:00
11:55 PM,62.1,46.9,58,29.96,10.0,SSE,4.6,-,N/A,,Scattered Clouds,160,2013-04-08 04:55:00